• en France
  • Liste des pays
  • À 7 jours
  • Température de l'eau
  • Carte satellitaire
  • Carte météo
  • Widgets météo
  • user-avatar
    Se connecter

    Météo par heure à Madingou

    Ce jour, 18 Décembre, Lundi

    Heure Température Précipitation Vent Pression Humidité
    00:00 +25°C° 0,4 mm 1 m/s 745 mmHg 97%
    01:00 +25°C° 0 mm 1 m/s 745 mmHg 97%
    02:00 +25°C° 0,5 mm 1 m/s 745 mmHg 98%
    03:00 +25°C° 0,5 mm 1 m/s 745 mmHg 98%
    04:00 +23°C° 0,5 mm 0 m/s 744 mmHg 98%
    05:00 +23°C° 0,1 mm 0 m/s 745 mmHg 97%
    06:00 +23°C° 0,1 mm 0 m/s 745 mmHg 97%
    07:00 +24°C° 0 mm 0 m/s 745 mmHg 95%
    08:00 +28°C° 0,2 mm 1 m/s 745 mmHg 87%
    09:00 +29°C° 0,2 mm 1 m/s 745 mmHg 80%
    10:00 +31°C° 0,2 mm 1 m/s 745 mmHg 73%
    11:00 +32°C° 0,6 mm 1 m/s 744 mmHg 72%
    12:00 +32°C° 0,6 mm 2 m/s 744 mmHg 71%
    13:00 +32°C° 0 mm 2 m/s 743 mmHg 73%
    14:00 +31°C° 1,4 mm 2 m/s 743 mmHg 76%
    15:00 +31°C° 1,4 mm 2 m/s 743 mmHg 80%
    16:00 +30°C° 1,4 mm 2 m/s 742 mmHg 84%
    17:00 +29°C° 2,1 mm 2 m/s 743 mmHg 88%
    18:00 +27°C° 2,1 mm 2 m/s 743 mmHg 91%
    19:00 +26°C° 2,1 mm 2 m/s 744 mmHg 94%
    20:00 +26°C° 1,3 mm 2 m/s 744 mmHg 95%
    21:00 +26°C° 1,3 mm 2 m/s 745 mmHg 96%
    22:00 +25°C° 1,3 mm 1 m/s 745 mmHg 96%
    23:00 +25°C° 0,3 mm 1 m/s 745 mmHg 97%

    Demain, 19 Décembre, Mardi

    Heure Température Précipitation Vent Pression Humidité
    00:00 +25°C° 0,3 mm 1 m/s 745 mmHg 97%
    01:00 +25°C° 0,3 mm 1 m/s 745 mmHg 98%
    02:00 +25°C° 0,1 mm 1 m/s 744 mmHg 98%
    03:00 +25°C° 0,1 mm 1 m/s 744 mmHg 98%
    04:00 +23°C° 0,1 mm 0 m/s 744 mmHg 98%
    05:00 +23°C° 0,3 mm 0 m/s 744 mmHg 98%
    06:00 +23°C° 0,3 mm 0 m/s 744 mmHg 97%
    07:00 +23°C° 0,3 mm 0 m/s 745 mmHg 97%
    08:00 +24°C° 0,5 mm 0 m/s 745 mmHg 96%
    09:00 +24°C° 0,5 mm 0 m/s 745 mmHg 94%
    10:00 +24°C° 0,5 mm 0 m/s 745 mmHg 93%
    11:00 +27°C° 0,6 mm 1 m/s 745 mmHg 93%
    12:00 +27°C° 0,6 mm 1 m/s 744 mmHg 92%
    13:00 +27°C° 0,6 mm 1 m/s 744 mmHg 92%
    14:00 +27°C° 0,1 mm 1 m/s 743 mmHg 90%
    15:00 +28°C° 0,1 mm 1 m/s 743 mmHg 88%
    16:00 +28°C° 0,1 mm 1 m/s 742 mmHg 86%
    17:00 +27°C° 0 mm 1 m/s 742 mmHg 89%
    18:00 +26°C° 0 mm 1 m/s 743 mmHg 93%
    19:00 +23°C° 0 mm 0 m/s 743 mmHg 96%
    20:00 +23°C° 0 mm 0 m/s 743 mmHg 96%
    21:00 +23°C° 0 mm 0 m/s 744 mmHg 96%
    22:00 +25°C° 0 mm 1 m/s 744 mmHg 96%
    23:00 +23°C° 0 mm 0 m/s 744 mmHg 97%

    Après-demain, 20 Décembre, Mercredi

    Heure Température Précipitation Vent Pression Humidité
    00:00 +23°C° 0 mm 0 m/s 744 mmHg 97%
    01:00 +23°C° 0 mm 0 m/s 744 mmHg 98%
    02:00 +23°C° 0 mm 0 m/s 744 mmHg 98%
    03:00 +23°C° 0 mm 0 m/s 744 mmHg 98%
    04:00 +23°C° 0 mm 0 m/s 744 mmHg 98%
    05:00 +25°C° 0 mm 1 m/s 744 mmHg 97%
    06:00 +25°C° 0 mm 1 m/s 744 mmHg 96%
    07:00 +25°C° 0 mm 1 m/s 745 mmHg 96%
    08:00 +27°C° 0 mm 1 m/s 745 mmHg 89%
    09:00 +28°C° 0 mm 1 m/s 745 mmHg 82%
    10:00 +30°C° 0 mm 1 m/s 745 mmHg 75%
    11:00 +31°C° 0 mm 1 m/s 744 mmHg 72%
    12:00 +32°C° 0 mm 1 m/s 744 mmHg 69%
    13:00 +33°C° 0 mm 1 m/s 743 mmHg 65%
    14:00 +32°C° 0,2 mm 1 m/s 743 mmHg 67%
    15:00 +32°C° 0,2 mm 1 m/s 742 mmHg 69%
    16:00 +32°C° 0,2 mm 1 m/s 742 mmHg 71%
    17:00 +30°C° 0,7 mm 1 m/s 742 mmHg 78%
    18:00 +28°C° 0,7 mm 1 m/s 743 mmHg 85%
    19:00 +27°C° 0,7 mm 1 m/s 743 mmHg 92%
    20:00 +26°C° 1 mm 1 m/s 744 mmHg 93%
    21:00 +26°C° 1 mm 1 m/s 745 mmHg 94%
    22:00 +26°C° 1 mm 1 m/s 745 mmHg 95%
    23:00 +25°C° 0 mm 1 m/s 745 mmHg 96%

    21 Décembre, Jeudi

    Heure Température Précipitation Vent Pression Humidité
    00:00 +25°C° 0 mm 1 m/s 745 mmHg 97%
    01:00 +25°C° 0 mm 1 m/s 745 mmHg 98%
    02:00 +25°C° 0,4 mm 1 m/s 745 mmHg 98%
    03:00 +25°C° 0,4 mm 1 m/s 744 mmHg 98%
    04:00 +25°C° 0,4 mm 1 m/s 744 mmHg 98%
    05:00 +23°C° 0,1 mm 0 m/s 745 mmHg 97%
    06:00 +23°C° 0,1 mm 0 m/s 745 mmHg 97%
    07:00 +23°C° 0,1 mm 0 m/s 746 mmHg 96%
    08:00 +26°C° 0 mm 1 m/s 746 mmHg 92%
    09:00 +27°C° 0 mm 1 m/s 746 mmHg 87%
    10:00 +28°C° 0 mm 1 m/s 746 mmHg 83%
    11:00 +30°C° 0,1 mm 1 m/s 745 mmHg 77%
    12:00 +31°C° 0,1 mm 1 m/s 745 mmHg 71%
    13:00 +31°C° 0,1 mm 0 m/s 744 mmHg 65%
    14:00 +33°C° 0,6 mm 1 m/s 743 mmHg 66%
    15:00 +32°C° 0,6 mm 1 m/s 743 mmHg 68%
    16:00 +32°C° 0,6 mm 1 m/s 742 mmHg 69%
    17:00 +30°C° 0,1 mm 1 m/s 742 mmHg 75%
    18:00 +29°C° 0,1 mm 1 m/s 743 mmHg 82%
    19:00 +27°C° 0,1 mm 1 m/s 743 mmHg 88%
    20:00 +27°C° 0,1 mm 1 m/s 744 mmHg 90%
    21:00 +26°C° 0,1 mm 1 m/s 744 mmHg 92%
    22:00 +26°C° 0,1 mm 1 m/s 745 mmHg 94%
    23:00 +26°C° 0 mm 1 m/s 745 mmHg 95%

    22 Décembre, Vendredi

    Heure Température Précipitation Vent Pression Humidité
    00:00 +25°C° 0 mm 1 m/s 745 mmHg 96%
    01:00 +25°C° 0 mm 1 m/s 744 mmHg 97%
    02:00 +25°C° 0,5 mm 1 m/s 744 mmHg 97%
    03:00 +25°C° 0,5 mm 1 m/s 744 mmHg 97%
    04:00 +25°C° 0,5 mm 1 m/s 744 mmHg 97%
    05:00 +25°C° 0,1 mm 1 m/s 745 mmHg 97%
    06:00 +25°C° 0,1 mm 1 m/s 745 mmHg 96%
    07:00 +25°C° 0,1 mm 1 m/s 746 mmHg 95%
    08:00 +26°C° 0 mm 1 m/s 746 mmHg 92%
    09:00 +27°C° 0 mm 1 m/s 746 mmHg 88%
    10:00 +28°C° 0 mm 1 m/s 746 mmHg 85%
    11:00 +30°C° 0,1 mm 1 m/s 745 mmHg 79%
    12:00 +31°C° 0,1 mm 1 m/s 744 mmHg 73%
    13:00 +33°C° 0,1 mm 1 m/s 743 mmHg 67%
    14:00 +32°C° 2 mm 1 m/s 743 mmHg 71%
    15:00 +32°C° 2 mm 1 m/s 742 mmHg 75%
    16:00 +31°C° 2 mm 1 m/s 742 mmHg 79%
    17:00 +30°C° 0,7 mm 1 m/s 742 mmHg 82%
    18:00 +26°C° 0,7 mm 0 m/s 743 mmHg 86%
    19:00 +25°C° 0,7 mm 0 m/s 743 mmHg 90%
    20:00 +24°C° 0,5 mm 0 m/s 744 mmHg 91%
    21:00 +24°C° 0,5 mm 0 m/s 744 mmHg 92%
    22:00 +24°C° 0,5 mm 0 m/s 745 mmHg 92%
    23:00 +24°C° 0,4 mm 0 m/s 744 mmHg 94%

    23 Décembre, Samedi

    Heure Température Précipitation Vent Pression Humidité
    00:00 +25°C° 0,4 mm 1 m/s 744 mmHg 95%
    01:00 +25°C° 0,4 mm 1 m/s 743 mmHg 96%
    02:00 +25°C° 0,1 mm 1 m/s 743 mmHg 96%
    03:00 +25°C° 0,1 mm 1 m/s 743 mmHg 97%
    04:00 +25°C° 0,1 mm 1 m/s 743 mmHg 98%
    05:00 +25°C° 0,1 mm 1 m/s 744 mmHg 97%
    06:00 +25°C° 0,1 mm 1 m/s 744 mmHg 96%
    07:00 +26°C° 0,1 mm 1 m/s 745 mmHg 96%
    08:00 +26°C° 0 mm 1 m/s 745 mmHg 92%
    09:00 +27°C° 0 mm 1 m/s 745 mmHg 88%
    10:00 +28°C° 0 mm 1 m/s 745 mmHg 84%
    11:00 +29°C° 0 mm 1 m/s 744 mmHg 80%
    12:00 +30°C° 0 mm 1 m/s 744 mmHg 76%
    13:00 +31°C° 0 mm 1 m/s 743 mmHg 72%
    14:00 +31°C° 0,1 mm 1 m/s 743 mmHg 72%
    15:00 +31°C° 0,1 mm 1 m/s 742 mmHg 71%
    16:00 +32°C° 0,1 mm 1 m/s 742 mmHg 70%
    17:00 +30°C° 0,4 mm 1 m/s 742 mmHg 77%
    18:00 +29°C° 0,4 mm 1 m/s 742 mmHg 83%
    19:00 +27°C° 0,4 mm 1 m/s 743 mmHg 90%
    20:00 +27°C° 0,4 mm 1 m/s 743 mmHg 92%
    21:00 +26°C° 0,4 mm 1 m/s 744 mmHg 93%
    22:00 +26°C° 0,4 mm 1 m/s 744 mmHg 95%
    23:00 +25°C° 0,1 mm 1 m/s 744 mmHg 96%
    Voir plus